Mayfield, KY

10:44 AM CST on December 03, 2016 (GMT -0600)
Mayfld Grav Cnty AP, Mayfield

Weather History for KM25 - January, 2014

Change the Weather History Date:

Friday, January 10, 2014

  Actual Average (KPAH) Record (KPAH)
Temperature  
Mean Temperature 42 °F 34 °F  
Max Temperature 50 °F 43 °F 70 °F (1949)
Min Temperature 33 °F 26 °F -8 °F (1982)
Degree Days  
Heating Degree Days 24 31  
Month to date heating degree days 307  
Since 1 July heating degree days 1938  
Cooling Degree Days 0 0  
Month to date cooling degree days 0  
Year to date cooling degree days 0  
Moisture  
Dew Point 42 °F    
Average Humidity 92    
Maximum Humidity 100    
Minimum Humidity 87    
Precipitation  
Precipitation 0.00 in 0.12 in 1.89 in (2006)
Month to date precipitation 1.21  
Year to date precipitation 1.21  
Snow  
Snow 0.00 in 0.10 in 2.50 in (1954)
Month to date snowfall 0.9  
Since 1 July snowfall 3.2  
Snow Depth -    
Sea Level Pressure  
Sea Level Pressure 29.97 in    
Wind  
Wind Speed 7 mph (SSE)    
Max Wind Speed 15 mph    
Max Gust Speed 22 mph    
Visibility 9 miles    
Events Rain    
T = Trace of Precipitation, MM = Missing Value Source: NWS Daily Summary

Daily Weather History Graph

Daily Weather History Graph

Search for Another Location

Airport or City:

Trip Planner

Search our weather history database for the weather conditions in past years. The results will help you decide how hot, cold, wet, or windy it might be!

Date:

Astronomy

Jan. 10, 2014 Rise Set
Actual Time 7:07 AM CST 4:56 PM CST
Civil Twilight 6:38 AM CST 5:25 PM CST
Nautical Twilight 6:06 AM CST 5:57 PM CST
Astronomical Twilight 5:35 AM CST 6:28 PM CST
Moon 12:58 PM CST (1/10) 2:16 AM CST (1/10)
Length of Visible Light 10h 46m
Length of Day
9h 49m
Waxing Gibbous, 75% of the Moon is Illuminated
Jan 10
Waxing Gibbous
Jan 15
Full
Jan 23
Last Quarter
Jan 30
New
Feb 6
First Quarter

Hourly Weather History & Observations

Time (CST) Temp. Windchill Dew Point Humidity Pressure Visibility Wind Dir Wind Speed Gust Speed Precip Events Conditions
12:15 AM 33.8 °F - 32.0 °F 93% 30.22 in 10.0 mi Calm Calm - N/A   Overcast
12:35 AM 33.8 °F 30.8 °F 32.0 °F 93% 30.21 in 10.0 mi ESE 3.5 mph - N/A   Overcast
12:55 AM 35.6 °F 32.8 °F 32.0 °F 87% 30.20 in 10.0 mi ESE 3.5 mph - N/A   Overcast
1:15 AM 35.6 °F - 32.0 °F 87% 30.20 in 10.0 mi Calm Calm - N/A   Overcast
1:35 AM 33.8 °F 30.8 °F 32.0 °F 93% 30.20 in 10.0 mi SE 3.5 mph - N/A   Overcast
1:55 AM 35.6 °F 31.7 °F 32.0 °F 87% 30.19 in 10.0 mi SE 4.6 mph - N/A   Overcast
2:15 AM 35.6 °F 30.7 °F 32.0 °F 87% 30.19 in 10.0 mi SSE 5.8 mph - N/A   Overcast
2:35 AM 35.6 °F 31.7 °F 33.8 °F 93% 30.18 in 10.0 mi SSE 4.6 mph - N/A   Overcast
2:55 AM 35.6 °F 30.7 °F 33.8 °F 93% 30.17 in 10.0 mi SSE 5.8 mph - N/A   Overcast
3:15 AM 37.4 °F 32.8 °F 33.8 °F 87% 30.16 in 10.0 mi SSE 5.8 mph - N/A   Overcast
3:35 AM 37.4 °F 32.8 °F 35.6 °F 93% 30.16 in 10.0 mi South 5.8 mph - N/A   Overcast
3:55 AM 39.2 °F 34.2 °F 35.6 °F 87% 30.15 in 10.0 mi SSE 6.9 mph - N/A   Overcast
4:15 AM 41.0 °F 36.4 °F 37.4 °F 87% 30.15 in 10.0 mi South 6.9 mph - N/A   Overcast
4:35 AM 41.0 °F 35.2 °F 37.4 °F 87% 30.13 in 10.0 mi SSE 9.2 mph - N/A   Overcast
4:55 AM 42.8 °F 37.5 °F 39.2 °F 87% 30.13 in 10.0 mi South 9.2 mph - N/A   Overcast
5:15 AM 42.8 °F 38.0 °F 39.2 °F 87% 30.12 in 10.0 mi South 8.1 mph - N/A   Overcast
5:35 AM 42.8 °F 37.5 °F 41.0 °F 93% 30.11 in 10.0 mi SSE 9.2 mph - N/A   Overcast
5:55 AM 42.8 °F 38.6 °F 41.0 °F 93% 30.12 in 10.0 mi South 6.9 mph - N/A   Overcast
6:15 AM 42.8 °F 37.0 °F 41.0 °F 93% 30.11 in 10.0 mi SSE 10.4 mph 16.1 mph N/A   Overcast
6:35 AM 42.8 °F 38.0 °F 41.0 °F 93% 30.11 in 10.0 mi SSE 8.1 mph - N/A   Overcast
6:55 AM 42.8 °F 38.6 °F 41.0 °F 93% 30.11 in 10.0 mi South 6.9 mph - N/A   Overcast
7:15 AM 42.8 °F 38.6 °F 41.0 °F 93% 30.11 in 10.0 mi South 6.9 mph - N/A   Overcast
7:35 AM 42.8 °F 38.0 °F 41.0 °F 93% 30.11 in 10.0 mi SSE 8.1 mph - N/A   Overcast
7:55 AM 42.8 °F 38.0 °F 41.0 °F 93% 30.11 in 10.0 mi SSE 8.1 mph - N/A   Overcast
8:15 AM 42.8 °F 38.0 °F 41.0 °F 93% 30.11 in 10.0 mi SSE 8.1 mph - N/A   Overcast
8:35 AM 44.6 °F 39.7 °F 42.8 °F 93% 30.10 in 10.0 mi South 9.2 mph - N/A   Overcast
8:55 AM 44.6 °F 39.2 °F 42.8 °F 93% 30.11 in 10.0 mi South 10.4 mph - N/A   Overcast
9:15 AM 44.6 °F 38.8 °F 42.8 °F 93% 30.10 in 10.0 mi SSE 11.5 mph 17.3 mph N/A   Overcast
9:35 AM 44.6 °F 38.8 °F 42.8 °F 93% 30.10 in 10.0 mi SSE 11.5 mph 17.3 mph N/A   Overcast
9:55 AM 44.6 °F 39.7 °F 42.8 °F 93% 30.11 in 7.0 mi South 9.2 mph - N/A   Light Drizzle
10:15 AM 44.6 °F 40.2 °F 42.8 °F 93% 30.10 in 7.0 mi South 8.1 mph - N/A   Overcast
10:35 AM 44.6 °F 38.1 °F 44.6 °F 100% 30.07 in 7.0 mi SSE 13.8 mph 19.6 mph N/A   Overcast
10:55 AM 44.6 °F 38.8 °F 44.6 °F 100% 30.06 in 7.0 mi SSE 11.5 mph 16.1 mph N/A   Drizzle
11:15 AM 44.6 °F 39.7 °F 44.6 °F 100% 30.04 in 7.0 mi SSE 9.2 mph - N/A   Overcast
11:35 AM 46.4 °F 42.4 °F 44.6 °F 93% 30.01 in 7.0 mi SSE 8.1 mph - N/A   Overcast
11:55 AM 46.4 °F 42.4 °F 44.6 °F 93% 29.99 in 10.0 mi SSE 8.1 mph - N/A   Overcast
12:15 PM 46.4 °F 41.1 °F 44.6 °F 93% 29.97 in 10.0 mi SSE 11.5 mph - N/A   Overcast
12:35 PM 48.2 °F - 44.6 °F 87% 29.96 in 10.0 mi SSE 9.2 mph 17.3 mph N/A   Overcast
12:55 PM 48.2 °F - 44.6 °F 87% 29.96 in 10.0 mi South 8.1 mph - N/A   Overcast
1:15 PM 46.4 °F 41.1 °F 44.6 °F 93% 29.96 in 10.0 mi South 11.5 mph - N/A   Overcast
1:35 PM 46.4 °F 42.4 °F 44.6 °F 93% 29.94 in 10.0 mi South 8.1 mph - N/A   Overcast
1:55 PM 48.2 °F - 44.6 °F 87% 29.92 in 10.0 mi SSE 8.1 mph - N/A   Overcast
2:15 PM 48.2 °F - 44.6 °F 87% 29.91 in 10.0 mi SSE 10.4 mph 17.3 mph N/A   Mostly Cloudy
2:35 PM 48.2 °F - 44.6 °F 87% 29.91 in 10.0 mi South 10.4 mph - N/A   Overcast
2:55 PM 48.2 °F - 44.6 °F 87% 29.92 in 10.0 mi South 9.2 mph - N/A   Overcast
3:15 PM 46.4 °F 42.9 °F 44.6 °F 93% 29.93 in 10.0 mi South 6.9 mph - N/A   Overcast
3:35 PM 46.4 °F 42.4 °F 44.6 °F 93% 29.91 in 10.0 mi South 8.1 mph - N/A   Overcast
3:55 PM 46.4 °F 42.4 °F 44.6 °F 93% 29.90 in 10.0 mi SSE 8.1 mph - N/A   Overcast
4:15 PM 46.4 °F 41.9 °F 44.6 °F 93% 29.89 in 7.0 mi SSE 9.2 mph - N/A   Overcast
4:35 PM 46.4 °F 40.7 °F 44.6 °F 93% 29.86 in 7.0 mi SSE 12.7 mph 17.3 mph N/A   Overcast
4:55 PM 46.4 °F 41.1 °F 44.6 °F 93% 29.83 in 7.0 mi SE 11.5 mph 19.6 mph N/A   Overcast
5:15 PM 48.2 °F - 44.6 °F 87% 29.81 in 10.0 mi SSE 13.8 mph 18.4 mph N/A   Overcast
5:35 PM 48.2 °F - 44.6 °F 87% 29.80 in 10.0 mi SSE 11.5 mph 18.4 mph N/A Rain Light Rain
5:55 PM 48.2 °F - 46.4 °F 93% 29.79 in 10.0 mi SSE 13.8 mph 19.6 mph N/A   Overcast
6:15 PM 50.0 °F - 46.4 °F 87% 29.78 in 10.0 mi SSE 11.5 mph 19.6 mph N/A   Overcast
6:35 PM 50.0 °F - 46.4 °F 87% 29.77 in 10.0 mi SSE 15.0 mph 19.6 mph N/A   Overcast
6:55 PM 50.0 °F - 46.4 °F 87% 29.76 in 10.0 mi SSE 9.2 mph 17.3 mph N/A Rain Light Rain
7:15 PM 50.0 °F - 46.4 °F 87% 29.76 in 7.0 mi South 10.4 mph 19.6 mph N/A Rain Light Rain
7:35 PM 50.0 °F - 48.2 °F 94% 29.74 in 10.0 mi South 11.5 mph 17.3 mph N/A Rain Light Rain
7:55 PM 50.0 °F - 48.2 °F 94% 29.73 in 7.0 mi South 13.8 mph 21.9 mph N/A Rain Rain
8:15 PM 50.0 °F - 48.2 °F 94% 29.75 in 7.0 mi SSW 9.2 mph - N/A Rain Rain
8:35 PM 50.0 °F - 50.0 °F 100% 29.74 in 5.0 mi South 10.4 mph - N/A Rain Rain
8:55 PM 50.0 °F - 50.0 °F 100% 29.78 in 4.0 mi WNW 10.4 mph 16.1 mph N/A Rain Heavy Rain
9:15 PM 48.2 °F - 46.4 °F 93% 29.78 in 10.0 mi WNW 6.9 mph - N/A Rain Light Rain
9:35 PM 46.4 °F 43.5 °F 46.4 °F 100% 29.78 in 7.0 mi West 5.8 mph - N/A Rain Rain
9:55 PM 46.4 °F - 46.4 °F 100% 29.76 in 2.0 mi Calm Calm - N/A Rain Rain
10:15 PM 46.4 °F - 46.4 °F 100% 29.74 in 4.0 mi Calm Calm - N/A Rain Rain
10:35 PM 46.4 °F - 46.4 °F 100% 29.72 in 4.0 mi Calm Calm - N/A Rain Light Rain
10:55 PM 46.4 °F 43.5 °F 46.4 °F 100% 29.72 in 4.0 mi SSE 5.8 mph - N/A Rain Rain
11:15 PM 46.4 °F 42.4 °F 46.4 °F 100% 29.68 in 5.0 mi SE 8.1 mph - N/A Rain Rain
11:35 PM 46.4 °F 42.9 °F 46.4 °F 100% 29.67 in 7.0 mi SSE 6.9 mph - N/A Rain Light Rain
11:55 PM 46.4 °F 43.5 °F 46.4 °F 100% 29.66 in 5.0 mi SSE 5.8 mph - N/A Rain Rain